Location: Iesi
(43.5167°N, 13.2333°E)
Time: 20:45:20
(UTC+00:00)

X-37B - Pass Details

Date: 02 November 2020
Orbit: 384 x 390 km, 45.0° (Epoch: 26 November)

Event Time Altitude Azimuth Distance (km) Brightness Sun altitude
Exits shadow 04:59:52 - 233° (SW) 2,011 3.8 -8.6°
Reaches altitude 10° 05:01:23 10° 227° (SW) 1,410 3.1 -8.3°
Maximum altitude 05:04:24 42° 155° (SSE) 564 1.7 -7.8°
Drops below altitude 10° 05:07:26 10° 83° (E) 1,412 4.8 -7.2°
Sets 05:09:33 0° 76° (ENE) 2,267 5.7 -6.8°
